This is the latest recevied weather packets stored in our database for station/object SP3SWJ-13. If no packets are shown the sender has not sent any weather packets the latest 10 day(s).
| Time | Temp. | Humidity | Pressure | Rain* | Wind** | Luminosity | Snow |
|---|---|---|---|---|---|---|---|
| 1778179855 | 9.44° C | 77% | 1007.1 hPa | - | - | - | - |
| 1778179554 | 9.44° C | 77% | 1007 hPa | - | - | - | - |
| 1778179253 | 9.44° C | 77% | 1006.9 hPa | - | - | - | - |
| 1778178952 | 9.44° C | 76% | 1006.9 hPa | - | - | - | - |
| 1778178651 | 9.44° C | 76% | 1006.8 hPa | - | - | - | - |
| 1778178351 | 9.44° C | 77% | 1006.8 hPa | - | - | - | - |
| 1778178049 | 9.44° C | 77% | 1006.8 hPa | - | - | 1 W/m² | - |
| 1778177748 | 9.44° C | 77% | 1006.9 hPa | - | - | 1 W/m² | - |
| 1778177447 | 9.44° C | 77% | 1006.8 hPa | - | - | 1 W/m² | - |
| 1778177146 | 9.44° C | 78% | 1006.6 hPa | - | - | 2 W/m² | - |
| 1778176845 | 9.44° C | 77% | 1006.5 hPa | - | - | 3 W/m² | - |
| 1778176544 | 9.44° C | 77% | 1006.5 hPa | - | - | 4 W/m² | - |
| 1778176243 | 9.44° C | 77% | 1006.2 hPa | - | - | 6 W/m² | - |
| 1778175942 | 9.44° C | 78% | 1006.1 hPa | - | - | 7 W/m² | - |
| 1778175641 | 9.44° C | 77% | 1006.1 hPa | - | - | 7 W/m² | - |
| 1778175340 | 9.44° C | 78% | 1006.1 hPa | - | - | 7 W/m² | - |
| 1778175039 | 9.44° C | 78% | 1006.1 hPa | - | - | 8 W/m² | - |
| 1778174738 | 9.44° C | 78% | 1006.2 hPa | - | - | 8 W/m² | - |
| 1778174437 | 9.44° C | 77% | 1006.1 hPa | - | - | 12 W/m² | - |
| 1778174136 | 9.44° C | 78% | 1006 hPa | - | - | 18 W/m² | - |
| 1778173835 | 9.44° C | 77% | 1006 hPa | - | - | 21 W/m² | - |
| 1778173534 | 10° C | 76% | 1006 hPa | - | - | 29 W/m² | - |
| 1778173233 | 10° C | 76% | 1005.8 hPa | - | - | 29 W/m² | - |
| 1778172932 | 10° C | 76% | 1005.8 hPa | - | - | 29 W/m² | - |
| 1778172631 | 10° C | 76% | 1005.7 hPa | - | - | 35 W/m² | - |
* Rain since midnight (hover to see other rain measurements)
** Current wind speed in m/s (hover to see current wind gust speed)